This is the latest recevied weather packets stored in our database for station/object JS2QVS-13. If no packets are shown the sender has not sent any weather packets the latest 10 day(s).
| Time | Temp. | Humidity | Pressure | Rain* | Wind** | Luminosity | Snow |
|---|---|---|---|---|---|---|---|
| 1777691862 | 23.89° C | 37% | 1004.7 hPa | 0 mm | - | - | - |
| 1777691262 | 23.33° C | 37% | 1004.9 hPa | 0 mm | - | - | - |
| 1777690661 | 23.33° C | 39% | 1004.9 hPa | 0 mm | - | - | - |
| 1777690062 | 22.78° C | 40% | 1004.9 hPa | 0 mm | - | - | - |
| 1777689462 | 22.22° C | 40% | 1004.9 hPa | 0 mm | - | - | - |
| 1777688863 | 22.22° C | 41% | 1004.8 hPa | 0 mm | - | - | - |
| 1777688263 | 22.78° C | 38% | 1004.9 hPa | 0 mm | - | - | - |
| 1777687663 | 22.22° C | 38% | 1004.7 hPa | 0 mm | - | - | - |
| 1777687063 | 21.67° C | 40% | 1004.6 hPa | 0 mm | - | - | - |
| 1777686462 | 22.22° C | 38% | 1004.4 hPa | 0 mm | - | - | - |
| 1777685861 | 21.67° C | 39% | 1004.4 hPa | 0 mm | - | - | - |
| 1777685261 | 21.67° C | 39% | 1004.4 hPa | 0 mm | - | - | - |
| 1777684661 | 21.67° C | 38% | 1004.3 hPa | 0 mm | - | - | - |
| 1777684063 | 21.67° C | 40% | 1004.5 hPa | 0 mm | - | - | - |
| 1777683463 | 21.11° C | 41% | 1004.2 hPa | 0 mm | - | - | - |
| 1777682863 | 21.11° C | 43% | 1004.3 hPa | 0 mm | - | - | - |
| 1777682262 | 20.56° C | 44% | 1004 hPa | 0 mm | - | - | - |
| 1777681662 | 20° C | 45% | 1003.9 hPa | 0 mm | - | - | - |
| 1777681062 | 20° C | 45% | 1003.7 hPa | 0 mm | - | - | - |
| 1777680462 | 19.44° C | 46% | 1003.5 hPa | 0 mm | - | - | - |
| 1777679862 | 19.44° C | 48% | 1003.6 hPa | 0 mm | - | - | - |
| 1777679262 | 18.89° C | 48% | 1003.8 hPa | 0 mm | - | - | - |
| 1777678662 | 18.89° C | 49% | 1003.7 hPa | 0 mm | - | - | - |
| 1777678061 | 18.33° C | 51% | 1003.6 hPa | 0 mm | - | - | - |
| 1777677461 | 18.33° C | 52% | 1003.5 hPa | 0 mm | - | - | - |
* Rain latest hour (hover to see other rain measurements)
** Current wind speed in m/s (hover to see current wind gust speed)